DW7809 Newbiggin UK current weather conditions

sailwx.info

Wind from 034 at 7 knots gusting 17

Air temperature 16.1° C
Dewpoint 16.0° C

Last reported at 2019-Sep-22 08:56 UTC.
Time now 2019-Sep-22 10:12 UTC

Location: N 54°07' W 003°07'.
View on Google Maps.

See reports from other nearby stations

  
Tides and Currents Weather Stations Pressure Air Temp Water Temp Dewpoint Dewpoint Depression Visibility Wind Speed Wind Dir Waves Ship Positions
date/time (UTC)wind fromknots sea level pressurealtimeterstation pressurevisibilityair tempwater tempwave heightnotes
2019-Sep-22 08:56 034 7 gusting 17 16.1
2019-Sep-22 08:46 078 6 gusting 13 16.1
2019-Sep-22 08:36 066 4 gusting 17 16.1
2019-Sep-22 08:26 019 6 gusting 17 16.7
2019-Sep-22 08:16 053 8 gusting 14 16.7
2019-Sep-22 08:06 077 11 gusting 13 16.7
2019-Sep-22 07:56 069 5 gusting 13 16.7
2019-Sep-22 07:46 033 2 gusting 13 16.7
2019-Sep-22 07:36 033 5 gusting 11 17.2
2019-Sep-22 07:26 036 6 gusting 8 17.8
2019-Sep-22 07:16 098 3 gusting 8 17.8
2019-Sep-22 07:06 199 2 gusting 11 17.2
2019-Sep-22 06:56 124 7 gusting 11 17.2
2019-Sep-22 06:46 165 6 gusting 14 17.2
2019-Sep-22 06:36 170 8 gusting 13 17.2
2019-Sep-22 06:26 145 4 gusting 11 17.8
2019-Sep-22 06:16 156 1 gusting 6 17.8
2019-Sep-22 06:06 144 1 gusting 6 17.8
2019-Sep-22 05:56 088 17.8
2019-Sep-22 05:46 074 1 gusting 6 17.8
2019-Sep-22 05:36 074 4 gusting 11 18.3
2019-Sep-22 05:26 094 3 gusting 11 18.3
2019-Sep-22 05:16 023 4 gusting 8 18.3
2019-Sep-22 05:06 027 4 gusting 8 18.3
2019-Sep-22 04:56 074 2 gusting 11 18.3
2019-Sep-22 04:46 035 6 gusting 8 18.3
2019-Sep-22 04:36 357 0 gusting 11 18.3
2019-Sep-22 04:26 062 5 gusting 11 18.3
2019-Sep-22 04:16 030 3 gusting 11 18.3
2019-Sep-22 04:06 066 4 gusting 13 17.8
2019-Sep-22 03:56 092 2 gusting 13 17.8
2019-Sep-22 03:46 119 5 gusting 11 17.8
2019-Sep-22 03:36 077 4 gusting 11 17.8
2019-Sep-22 03:26 031 5 gusting 8 17.8
2019-Sep-22 03:16 039 5 gusting 11 17.2
2019-Sep-22 03:06 053 6 gusting 13 17.2
2019-Sep-22 02:56 038 7 gusting 11 17.2
2019-Sep-22 02:46 082 2 gusting 11 16.7
2019-Sep-22 02:36 061 3 gusting 8 16.7
2019-Sep-22 02:26 073 2 gusting 11 16.7
2019-Sep-22 02:16 014 5 gusting 13 16.7
2019-Sep-22 02:06 086 7 gusting 11 16.7
2019-Sep-22 01:56 034 4 gusting 11 16.7
2019-Sep-22 01:46 031 5 gusting 11 16.7
2019-Sep-22 01:36 053 3 gusting 13 16.7
2019-Sep-22 01:26 083 5 gusting 8 16.7
2019-Sep-22 01:16 060 5 gusting 11 16.7
2019-Sep-22 01:06 096 1 gusting 8 17.2
2019-Sep-22 00:56 036 5 gusting 8 17.8
2019-Sep-22 00:46 024 4 gusting 13 17.8
2019-Sep-22 00:36 031 6 gusting 11 17.8
2019-Sep-22 00:26 058 5 gusting 13 17.8
2019-Sep-22 00:16 040 6 gusting 13 17.8
2019-Sep-22 00:06 075 3 gusting 17 17.8
2019-Sep-21 23:56 045 6 gusting 13 17.2
2019-Sep-21 23:46 066 5 gusting 13 17.2
2019-Sep-21 23:36 080 2 gusting 13 17.2
2019-Sep-21 23:26 061 5 gusting 11 17.2
2019-Sep-21 23:16 010 5 gusting 11 17.2
2019-Sep-21 23:06 071 6 gusting 8 17.8
2019-Sep-21 22:56 095 5 gusting 11 17.8
2019-Sep-21 22:46 020 6 gusting 13 17.8
2019-Sep-21 22:36 035 5 gusting 11 17.8
2019-Sep-21 22:26 002 3 gusting 11 17.8
2019-Sep-21 22:16 076 5 gusting 13 18.3
2019-Sep-21 22:06 080 5 gusting 13 18.3
2019-Sep-21 21:56 075 6 gusting 13 18.9
2019-Sep-21 21:46 030 2 gusting 13 18.9
2019-Sep-21 21:36 053 7 gusting 14 19.4
2019-Sep-21 21:26 091 7 gusting 14 19.4
2019-Sep-21 21:16 059 8 gusting 14 19.4
2019-Sep-21 21:06 042 11 gusting 14 19.4
2019-Sep-21 20:56 035 7 gusting 14 19.4
2019-Sep-21 20:46 034 7 gusting 14 19.4
2019-Sep-21 20:36 078 6 gusting 13 19.4
2019-Sep-21 20:26 071 7 gusting 13 19.4
2019-Sep-21 20:16 070 5 gusting 11 20.0
2019-Sep-21 20:06 069 5 gusting 11 20.0
2019-Sep-21 19:56 105 5 gusting 11 20.0
2019-Sep-21 19:46 084 5 gusting 11 20.0
2019-Sep-21 19:36 082 6 gusting 8 20.0
2019-Sep-21 19:26 079 5 gusting 11 20.0
2019-Sep-21 19:15 076 6 gusting 11 20.6
2019-Sep-21 19:05 066 0 gusting 6 20.6
2019-Sep-21 18:55 118 2 gusting 6 20.6
2019-Sep-21 18:45 081 3 gusting 6 20.6
2019-Sep-21 18:35 037 3 gusting 6 20.6
2019-Sep-21 18:25 081 2 gusting 6 21.1
2019-Sep-21 18:15 025 4 gusting 6 20.6
2019-Sep-21 18:05 138 1 gusting 8 21.1
2019-Sep-21 17:55 110 2 gusting 6 21.1
2019-Sep-21 17:45 079 1 gusting 6 21.1
2019-Sep-21 17:35 122 2 gusting 4 21.7
2019-Sep-21 17:25 092 2 gusting 8 22.2
2019-Sep-21 17:15 099 4 gusting 8 22.2
2019-Sep-21 17:05 122 3 gusting 6 22.2
2019-Sep-21 16:55 109 3 gusting 8 22.8
2019-Sep-21 16:45 098 1 gusting 8 22.8
2019-Sep-21 16:35 125 2 gusting 8 23.3
2019-Sep-21 16:25 081 2 gusting 8 23.3
2019-Sep-21 16:15 117 2 gusting 8 23.3
2019-Sep-21 16:05 064 5 gusting 11 23.3
2019-Sep-21 15:55 129 2 gusting 8 23.3
2019-Sep-21 15:45 135 3 gusting 8 23.3
2019-Sep-21 15:35 093 2 gusting 8 23.3
2019-Sep-21 15:25 134 4 gusting 6 23.3
2019-Sep-21 15:15 079 1 gusting 8 23.3
2019-Sep-21 15:05 075 4 gusting 8 23.3
2019-Sep-21 14:55 080 4 gusting 8 23.3
2019-Sep-21 14:45 087 2 gusting 11 23.3
2019-Sep-21 14:35 111 1 gusting 8 23.9
2019-Sep-21 14:25 133 0 gusting 11 23.9
2019-Sep-21 14:15 195 0 gusting 8 23.9
2019-Sep-21 14:05 161 2 gusting 8 23.9
2019-Sep-21 13:55 094 6 gusting 11 23.9
2019-Sep-21 13:45 124 2 gusting 11 23.9
2019-Sep-21 13:35 191 2 gusting 11 23.9
2019-Sep-21 13:25 123 3 gusting 11 23.9
2019-Sep-21 13:15 093 4 gusting 11 23.9
2019-Sep-21 13:05 098 3 gusting 13 23.9
2019-Sep-21 12:55 080 4 gusting 11 23.9
2019-Sep-21 12:45 344 1 gusting 11 23.9
2019-Sep-21 12:35 122 3 gusting 11 23.9
2019-Sep-21 12:25 045 1 gusting 11 23.3
2019-Sep-21 12:15 081 4 gusting 11 23.3
2019-Sep-21 12:05 204 5 gusting 13 23.3
2019-Sep-21 11:55 121 4 gusting 8 23.3
2019-Sep-21 11:45 235 1 gusting 13 23.3
2019-Sep-21 11:35 128 4 gusting 13 22.2
2019-Sep-21 11:25 048 5 gusting 11 21.7
2019-Sep-21 11:15 108 4 gusting 11 21.1
2019-Sep-21 11:05 076 8 gusting 17 20.6
2019-Sep-21 10:55 108 5 gusting 14 20.6
2019-Sep-21 10:45 119 6 gusting 14 20.0
2019-Sep-21 10:35 065 5 gusting 14 19.4
2019-Sep-21 10:25 082 12 gusting 17 19.4
2019-Sep-21 10:15 062 7 gusting 17 18.9
2019-Sep-21 10:05 089 4 gusting 17 18.3
2019-Sep-21 09:55 029 9 gusting 21 18.3
2019-Sep-21 09:45 066 8 gusting 19 18.3
2019-Sep-21 09:35 075 13 gusting 21 17.8
2019-Sep-21 09:25 067 10 gusting 19 17.2
2019-Sep-21 09:15 048 7 gusting 17 16.7
2019-Sep-21 09:05 072 6 gusting 17 16.7
2019-Sep-21 08:55 089 9 gusting 14 16.1
2019-Sep-21 08:45 344 6 gusting 17 16.1
2019-Sep-21 08:35 064 8 gusting 14 15.6
2019-Sep-21 08:25 075 13 gusting 17 15.6
2019-Sep-21 08:15 066 6 gusting 14 15.6
2019-Sep-21 08:05 110 6 gusting 14 15.0
2019-Sep-21 07:55 076 5 gusting 13 15.0
2019-Sep-21 07:45 067 8 gusting 17 15.0
2019-Sep-21 07:35 082 8 gusting 13 15.0
2019-Sep-21 07:25 063 8 gusting 14 14.4
2019-Sep-21 07:15 082 5 gusting 14 14.4
2019-Sep-21 07:05 071 6 gusting 14 14.4
2019-Sep-21 06:55 077 6 gusting 17 14.4
2019-Sep-21 06:45 069 6 gusting 14 14.4
2019-Sep-21 06:35 076 8 gusting 13 14.4
2019-Sep-21 06:25 059 8 gusting 13 14.4
2019-Sep-21 06:15 083 5 gusting 14 14.4
2019-Sep-21 06:05 092 6 gusting 13 14.4
2019-Sep-21 05:55 074 5 gusting 14 14.4
2019-Sep-21 05:45 067 8 gusting 19 14.4
2019-Sep-21 05:35 089 7 gusting 13 14.4
2019-Sep-21 05:25 064 5 gusting 14 14.4
2019-Sep-21 05:14 117 7 gusting 14 14.4
2019-Sep-21 05:04 085 4 gusting 13 14.4
2019-Sep-21 04:54 067 4 gusting 13 14.4
2019-Sep-21 04:44 279 2 gusting 14 14.4
2019-Sep-21 04:34 073 9 gusting 13 14.4
2019-Sep-21 04:24 098 4 gusting 13 14.4
2019-Sep-21 04:14 052 3 gusting 13 14.4
2019-Sep-21 04:04 041 7 gusting 14 14.4
2019-Sep-21 03:54 070 8 gusting 14 14.4
2019-Sep-21 03:44 072 8 gusting 13 14.4
2019-Sep-21 03:34 069 4 gusting 13 14.4
2019-Sep-21 03:24 070 3 gusting 13 14.4
2019-Sep-21 03:14 074 6 gusting 13 14.4
2019-Sep-21 03:04 018 4 gusting 13 14.4
2019-Sep-21 02:54 035 7 gusting 13 14.4
2019-Sep-21 02:44 030 11 gusting 14 14.4
2019-Sep-21 02:34 085 5 gusting 14 15.0
2019-Sep-21 02:24 071 2 gusting 17 15.0
2019-Sep-21 02:14 093 4 gusting 13 15.0
2019-Sep-21 02:04 079 4 gusting 14 15.0
2019-Sep-21 01:54 075 8 gusting 11 15.0
2019-Sep-21 01:44 054 4 gusting 11 15.0
2019-Sep-21 01:34 057 4 gusting 11 15.6
2019-Sep-21 01:24 070 2 gusting 8 15.6
2019-Sep-21 01:14 095 5 gusting 6 15.6
2019-Sep-21 01:04 038 4 gusting 8 16.1
2019-Sep-21 00:54 081 3 gusting 13 16.1
2019-Sep-21 00:44 095 6 gusting 13 16.1
2019-Sep-21 00:34 138 4 gusting 11 16.1
2019-Sep-21 00:24 139 1 gusting 8 16.1
2019-Sep-21 00:14 101 0 gusting 11 16.1
2019-Sep-21 00:04 133 3 gusting 11 16.1
2019-Sep-20 23:54 115 6 gusting 13 16.1
2019-Sep-20 23:44 114 3 gusting 8 16.1
2019-Sep-20 23:34 075 4 gusting 11 15.6
2019-Sep-20 23:24 156 15.6
2019-Sep-20 23:14 136 0 gusting 6 15.6
2019-Sep-20 23:04 136 1 gusting 4 16.1
2019-Sep-20 22:54 062 1 gusting 8 16.1
2019-Sep-20 22:44 069 1 gusting 8 16.1
2019-Sep-20 22:34 108 6 gusting 13 16.7
2019-Sep-20 22:24 026 3 gusting 13 16.7
2019-Sep-20 22:14 082 7 gusting 11 16.7
2019-Sep-20 22:04 063 8 gusting 13 16.7
2019-Sep-20 21:54 082 4 gusting 13 16.7
2019-Sep-20 21:44 075 5 gusting 11 16.7
2019-Sep-20 21:34 083 2 gusting 8 16.7
2019-Sep-20 21:24 075 3 gusting 8 17.2
2019-Sep-20 21:14 081 1 gusting 8 17.2
2019-Sep-20 21:04 126 0 gusting 6 17.2
2019-Sep-20 20:54 074 2 gusting 8 17.8
2019-Sep-20 20:44 089 1 gusting 6 17.8
2019-Sep-20 20:34 123 1 gusting 8 18.3
2019-Sep-20 20:24 115 3 gusting 8 18.3
2019-Sep-20 20:14 092 4 gusting 8 18.3
2019-Sep-20 20:04 079 1 gusting 8 18.9
2019-Sep-20 19:54 121 1 gusting 8 18.9
2019-Sep-20 19:44 186 1 gusting 6 18.9
2019-Sep-20 19:34 159 0 gusting 6 18.9
2019-Sep-20 19:24 151 1 gusting 6 19.4
2019-Sep-20 19:14 058 2 gusting 6 19.4
2019-Sep-20 19:04 126 3 gusting 8 20.0
2019-Sep-20 18:54 196 0 gusting 6 20.0
2019-Sep-20 18:44 148 1 gusting 11 20.6
2019-Sep-20 18:34 077 2 gusting 8 20.6
2019-Sep-20 18:24 061 2 gusting 8 20.6
2019-Sep-20 18:14 061 3 gusting 8 20.6
2019-Sep-20 18:04 081 1 gusting 8 20.6
2019-Sep-20 17:54 095 2 gusting 8 20.6
2019-Sep-20 17:44 147 21.1
2019-Sep-20 17:34 114 0 gusting 6 21.1
2019-Sep-20 17:24 127 21.7
2019-Sep-20 17:14 142 21.7
2019-Sep-20 17:04 163 22.8
2019-Sep-20 16:54 215 2 gusting 6 22.8
2019-Sep-20 16:44 176 0 gusting 6 23.3
2019-Sep-20 16:34 094 2 gusting 4 23.3
2019-Sep-20 16:24 096 23.3
2019-Sep-20 16:14 162 0 gusting 4 23.3
2019-Sep-20 16:04 139 23.3
2019-Sep-20 15:54 092 1 gusting 6 23.3
2019-Sep-20 15:44 120 0 gusting 4 23.3
2019-Sep-20 15:34 105 0 gusting 4 23.3
2019-Sep-20 15:24 087 0 gusting 4 23.3
2019-Sep-20 15:14 116 23.3
2019-Sep-20 15:04 092 23.3
2019-Sep-20 14:53 090 0 gusting 4 23.3
2019-Sep-20 14:43 140 23.3
2019-Sep-20 14:33 170 0 gusting 4 23.3
2019-Sep-20 14:23 150 23.3
2019-Sep-20 14:13 041 22.8
2019-Sep-20 14:03 083 1 gusting 6 22.8
2019-Sep-20 13:53 080 2 gusting 6 22.8
2019-Sep-20 13:43 081 1 gusting 6 22.2
2019-Sep-20 13:33 077 2 gusting 4 22.2
2019-Sep-20 13:23 139 0 gusting 4 22.2
2019-Sep-20 13:13 076 2 gusting 4 22.2
2019-Sep-20 13:03 346 1 gusting 4 22.8
2019-Sep-20 12:53 119 23.3
2019-Sep-20 12:43 145 0 gusting 4 23.3
2019-Sep-20 12:33 126 2 gusting 4 23.3
2019-Sep-20 12:23 130 0 gusting 4 23.3
2019-Sep-20 12:13 183 2 gusting 4 23.3
2019-Sep-20 12:03 158 22.8
2019-Sep-20 11:53 164 22.8
2019-Sep-20 11:43 163 3 gusting 6 22.8
2019-Sep-20 11:33 141 3 gusting 6 22.8
2019-Sep-20 11:23 167 2 gusting 6 22.2
2019-Sep-20 11:13 166 1 gusting 6 22.2
2019-Sep-20 11:03 185 2 gusting 6 21.7
2019-Sep-20 10:53 166 5 gusting 6 21.1
2019-Sep-20 10:43 176 1 gusting 6 20.6
2019-Sep-20 10:33 101 1 gusting 8 20.0
2019-Sep-20 10:23 106 1 gusting 6 19.4
2019-Sep-20 10:13 134 0 gusting 6 18.9
2019-Sep-20 10:03 074 1 gusting 6 18.3